Lid_Strength_Index
4 4 4 4 4 4 4 4 4 4 4 4 4 4 4 4 4 7 11 8 7 4 4 6 5 5 7 9 10 12 16 19 17 15 15 13 12 10 10 10 10 9 8 4 3
4 4 4 4 4 4 4 4 4 4 4 4 4 4 4 4 8 10 6 4 3 2 6 8 9 8 10 10 10 13 17 16 14 12 14 12 12 11 10 11 11 10 8 3 3
4 4 4 4 4 4 4 4 4 4 4 4 4 4 5 6 13 12 3 3 2 2 6 7 8 9 11 11 11 12 14 14 12 11 11 11 11 11 11 12 10 10 7 5 4
4 5 5 5 4 4 4 4 4 4 4 4 5 4 5 9 16 9 -1 1 2 4 6 9 10 12 13 13 11 13 11 11 12 11 11 11 10 11 11 10 9 8 9 5 5
5 5 5 5 5 5 5 5 5 5 5 5 5 5 9 13 12 8 2 1 3 4 7 10 12 13 14 14 13 14 12 10 10 10 11 10 11 10 11 9 9 8 8 6 5
5 5 5 5 5 5 5 5 5 5 5 5 5 6 11 14 9 7 6 2 3 5 7 10 11 11 13 14 14 12 12 11 10 10 10 10 10 10 9 9 9 8 8 9 4
4 5 5 5 5 5 5 5 5 5 4 4 4 7 11 12 8 7 7 4 4 5 7 8 9 11 12 14 12 12 13 11 12 12 11 10 11 10 8 7 9 10 9 10 10
5 5 5 5 5 5 5 5 5 4 4 4 4 8 12 7 7 7 8 8 6 5 6 6 8 10 10 9 9 12 14 16 12 11 11 10 14 10 8 8 9 10 10 10 10
5 5 5 6 5 5 5 6 4 3 4 4 8 10 12 5 8 7 7 8 8 6 7 5 7 9 10 12 16 15 17 16 13 11 11 12 14 11 9 9 9 9 10 10 10
5 5 6 5 5 5 6 6 5 5 5 5 6 11 10 9 7 6 6 6 7 7 7 9 10 13 14 14 19 16 15 14 14 12 11 12 12 10 10 10 9 9 9 10 10
5 6 6 6 6 6 8 10 11 12 9 11 10 10 8 6 5 8 7 6 7 9 12 11 14 16 14 12 11 12 13 14 12 10 12 12 12 11 10 10 11 10 9 9 10
6 6 6 6 6 6 10 11 10 10 13 8 9 8 7 6 9 8 7 7 9 12 10 11 14 11 10 11 11 12 13 14 12 11 11 12 12 11 10 10 10 10 9 9 9
6 6 6 6 6 10 12 10 8 9 13 10 8 9 10 8 9 9 7 9 8 10 11 12 10 8 9 11 12 12 13 13 13 11 10 12 14 13 11 10 10 10 9 8 9
6 6 6 6 9 11 10 8 8 9 16 12 11 9 8 7 9 6 6 8 9 10 10 11 8 10 10 11 10 13 10 10 11 12 17 12 18 15 13 13 11 10 10 9 8
6 6 6 7 11 11 8 8 7 9 21 10 9 6 7 9 8 8 6 7 10 11 12 13 12 11 12 11 10 12 9 10 11 13 15 15 17 14 13 13 12 11 10 10 8
6 6 6 9 10 9 8 8 9 14 19 11 7 9 9 9 8 7 7 6 8 11 10 11 8 9 10 8 9 9 11 12 13 15 19 15 16 16 13 13 12 11 10 9 9
6 6 7 7 11 8 8 10 16 17 9 12 10 8 9 10 9 9 10 12 13 15 15 11 11 10 8 11 9 10 14 19 21 21 20 14 17 14 10 10 10 9 10 9 9
6 7 9 8 8 8 9 13 17 12 12 9 9 9 11 9 10 9 10 13 10 11 14 16 17 11 8 11 12 12 13 19 23 23 20 15 18 14 9 7 7 8 8 9 9
7 11 10 8 8 9 11 16 15 12 10 10 10 12 12 10 10 11 11 12 10 10 16 16 16 9 8 8 9 13 15 11 16 17 19 17 14 10 8 8 8 8 8 9 9
12 13 10 7 8 9 13 14 13 9 8 9 14 12 14 12 13 12 12 9 10 9 9 12 17 10 10 8 9 11 10 16 16 22 23 18 17 15 12 11 9 8 8 8 7
13 13 9 7 9 12 16 15 11 8 9 10 12 13 12 13 13 13 12 9 8 9 8 10 13 13 10 13 14 14 14 14 14 16 20 20 18 11 10 10 10 9 8 8 7
13 15 9 9 14 15 16 13 9 10 9 10 11 12 12 12 14 13 13 10 7 8 12 10 13 16 15 10 9 11 14 14 18 19 16 17 17 10 10 10 10 9 8 7 6
12 13 9 10 18 17 14 12 10 11 11 11 12 11 10 12 14 12 11 8 7 9 11 10 14 18 16 14 11 13 12 13 13 14 17 20 17 10 9 9 8 9 8 7 6
14 16 14 14 14 16 16 14 13 10 11 11 12 10 11 13 11 12 12 9 7 8 6 8 13 15 18 16 13 15 13 13 14 17 17 16 15 11 10 10 9 8 8 7 7
15 16 15 18 16 15 16 14 14 14 11 12 12 11 13 14 13 12 11 10 9 7 8 10 15 13 13 12 12 13 13 13 15 14 17 14 14 11 10 10 8 8 8 8 7
16 16 14 16 14 15 15 15 14 13 14 14 14 12 12 13 12 13 11 11 11 10 11 11 17 15 15 12 12 14 12 12 13 13 13 13 13 10 9 9 9 8 8 8 8
13 13 12 15 15 16 16 14 14 13 13 12 12 14 13 11 9 9 9 9 10 11 12 12 13 15 18 13 14 17 14 13 13 12 13 15 12 10 10 10 9 8 8 8 7